ACA854 CYYZ-EGLL

Flight info

Callsign ACA854
Flight time N/A
Altitude 35000
Route VERDO7 IPTOS Q921 AGLUK DCT BAREE N581A TUDEP/M083F360 NATT NETKI/N0479F370 DCT BOFUM Q37 MALUD Q38 NUGRA
Aircraft B77W/H-SDE1E2E3FGHIJ2J3J4J5M1RWXY/LB1D1

Departure

Time 2026-05-05 22:12
Airport Toronto Pearson International Airport (CYYZ)

Arrival

Time N/A
Airport London Heathrow Airport (EGLL)
Time Latitude Longitude Altitude Speed Heading
2026-05-05 21:58 43.67645 -79.60968 571 ft 0 kts 304°
2026-05-05 22:05 43.67645 -79.60966 561 ft 2 kts 304°
2026-05-05 22:06 43.67636 -79.60947 571 ft 2 kts 303°
2026-05-05 22:06 43.67627 -79.60928 571 ft 2 kts 300°
2026-05-05 22:06 43.67619 -79.60908 571 ft 2 kts 297°
2026-05-05 22:06 43.67612 -79.60888 571 ft 2 kts 292°
2026-05-05 22:07 43.67607 -79.60866 568 ft 2 kts 283°
2026-05-05 22:07 43.67604 -79.60844 568 ft 2 kts 267°
2026-05-05 22:07 43.67607 -79.60822 564 ft 2 kts 238°
2026-05-05 22:07 43.67614 -79.60810 571 ft 1 kts 227°
2026-05-05 22:08 43.67614 -79.60809 571 ft 0 kts 227°
2026-05-05 22:08 43.67614 -79.60810 571 ft 1 kts 227°
2026-05-05 22:09 43.67597 -79.60835 571 ft 7 kts 227°
2026-05-05 22:09 43.67539 -79.60893 570 ft 12 kts 185°
2026-05-05 22:09 43.67457 -79.60890 566 ft 12 kts 201°
2026-05-05 22:09 43.67395 -79.60968 571 ft 12 kts 230°
2026-05-05 22:10 43.67344 -79.61061 569 ft 12 kts 232°
2026-05-05 22:10 43.67292 -79.61154 572 ft 12 kts 232°
2026-05-05 22:10 43.67241 -79.61247 572 ft 12 kts 233°
2026-05-05 22:10 43.67190 -79.61339 574 ft 12 kts 229°
2026-05-05 22:11 43.67133 -79.61423 580 ft 12 kts 225°
2026-05-05 22:11 43.67139 -79.61526 575 ft 7 kts 311°
2026-05-05 22:11 43.67192 -79.61600 577 ft 28 kts 316°
2026-05-05 22:11 43.67518 -79.62026 580 ft 99 kts 316°
2026-05-05 22:12 43.68175 -79.62880 580 ft 157 kts 316°
2026-05-05 22:12 43.69072 -79.64056 684 ft 190 kts 315°
2026-05-05 22:12 43.70070 -79.65334 1135 ft 201 kts 316°
2026-05-05 22:12 43.71145 -79.66656 1722 ft 207 kts 319°
2026-05-05 22:13 43.72211 -79.68018 2378 ft 213 kts 321°
2026-05-05 22:13 43.73621 -79.68848 2503 ft 238 kts 357°
2026-05-05 22:13 43.75223 -79.68186 2962 ft 256 kts 34°
2026-05-05 22:13 43.76410 -79.66271 3453 ft 269 kts 54°
2026-05-05 22:14 43.77550 -79.64170 3961 ft 276 kts 45°
2026-05-05 22:14 43.78856 -79.62217 4741 ft 279 kts 41°
2026-05-05 22:14 43.80239 -79.60269 5297 ft 290 kts 40°
2026-05-05 22:14 43.81578 -79.58110 5700 ft 304 kts 57°
2026-05-05 22:15 43.82163 -79.55323 6147 ft 318 kts 92°
2026-05-05 22:15 43.81716 -79.52456 6743 ft 310 kts 119°
2026-05-05 22:15 43.80823 -79.49740 7218 ft 317 kts 120°
2026-05-05 22:15 43.79973 -79.46896 7926 ft 320 kts 118°
2026-05-05 22:16 43.79165 -79.44020 8700 ft 323 kts 118°
2026-05-05 22:16 43.78361 -79.41104 9432 ft 325 kts 119°
2026-05-05 22:16 43.77556 -79.38155 10091 ft 330 kts 119°
2026-05-05 22:16 43.76723 -79.35115 10409 ft 349 kts 119°
2026-05-05 22:17 43.75834 -79.31868 10595 ft 372 kts 117°
2026-05-05 22:17 43.75113 -79.28277 10754 ft 403 kts 105°
2026-05-05 22:17 43.74870 -79.24347 11088 ft 427 kts 92°
2026-05-05 22:17 43.75074 -79.20192 11694 ft 439 kts 88°
2026-05-05 22:18 43.75341 -79.15948 12499 ft 445 kts 88°
2026-05-05 22:18 43.75579 -79.11667 13407 ft 449 kts 89°
2026-05-05 22:18 43.75796 -79.07335 14188 ft 454 kts 89°
2026-05-05 22:18 43.76003 -79.02970 15065 ft 455 kts 90°
2026-05-05 22:19 43.76201 -78.98598 15996 ft 456 kts 90°
2026-05-05 22:19 43.76396 -78.94188 16687 ft 464 kts 90°
2026-05-05 22:19 43.76591 -78.89764 17369 ft 470 kts 90°
2026-05-05 22:19 43.76792 -78.85221 18133 ft 475 kts 90°
2026-05-05 22:20 43.77078 -78.80642 18795 ft 481 kts 85°
2026-05-05 22:20 43.77769 -78.76081 19466 ft 488 kts 76°
2026-05-05 22:20 43.78839 -78.71594 20146 ft 493 kts 69°
2026-05-05 22:20 43.80277 -78.67263 20805 ft 497 kts 63°
2026-05-05 22:21 43.81823 -78.62947 21410 ft 503 kts 63°
2026-05-05 22:21 43.83372 -78.58584 22007 ft 508 kts 64°
2026-05-05 22:21 43.84925 -78.54165 22680 ft 512 kts 64°
2026-05-05 22:21 43.86459 -78.49759 23215 ft 518 kts 65°
2026-05-05 22:22 43.88021 -78.45230 23728 ft 523 kts 65°
2026-05-05 22:22 43.89590 -78.40657 24210 ft 527 kts 65°
2026-05-05 22:22 43.91168 -78.36043 24707 ft 531 kts 65°
2026-05-05 22:22 43.92757 -78.31393 25162 ft 535 kts 65°
2026-05-05 22:23 43.94354 -78.26712 25631 ft 539 kts 64°
2026-05-05 22:23 43.95966 -78.21983 26074 ft 544 kts 64°
2026-05-05 22:23 43.97566 -78.17284 26513 ft 548 kts 64°
2026-05-05 22:23 43.99195 -78.12488 26948 ft 552 kts 64°
2026-05-05 22:24 44.00838 -78.07646 27309 ft 558 kts 64°
2026-05-05 22:24 44.02498 -78.02743 27652 ft 564 kts 64°
2026-05-05 22:24 44.04090 -77.98030 28070 ft 566 kts 64°
2026-05-05 22:24 44.05764 -77.93068 28485 ft 568 kts 64°
2026-05-05 22:25 44.07446 -77.88076 28900 ft 571 kts 64°
2026-05-05 22:25 44.09128 -77.83070 29333 ft 573 kts 64°
2026-05-05 22:25 44.10791 -77.78110 29801 ft 573 kts 63°
2026-05-05 22:25 44.12469 -77.73096 30276 ft 572 kts 63°
2026-05-05 22:26 44.14143 -77.68084 30744 ft 570 kts 63°
2026-05-05 22:26 44.15814 -77.63076 31178 ft 570 kts 63°
2026-05-05 22:26 44.17480 -77.58076 31590 ft 568 kts 63°
2026-05-05 22:26 44.19198 -77.53156 32183 ft 562 kts 59°
2026-05-05 22:27 44.21168 -77.48463 32659 ft 558 kts 53°
2026-05-05 22:27 44.23415 -77.44079 33003 ft 554 kts 46°
2026-05-05 22:27 44.25867 -77.39933 33349 ft 554 kts 45°
2026-05-05 22:27 44.28316 -77.35787 33728 ft 553 kts 46°
2026-05-05 22:28 44.30711 -77.31682 34124 ft 552 kts 46°
2026-05-05 22:28 44.33114 -77.27516 34499 ft 550 kts 46°
2026-05-05 22:28 44.35502 -77.23347 34762 ft 551 kts 46°
2026-05-05 22:29 44.40302 -77.14916 34807 ft 554 kts 46°
2026-05-05 22:29 44.45066 -77.06512 34798 ft 548 kts 46°
2026-05-05 22:30 44.49688 -76.98350 34798 ft 545 kts 46°
2026-05-05 22:30 44.54341 -76.90117 34813 ft 543 kts 46°
2026-05-05 22:31 44.59025 -76.81809 34794 ft 543 kts 46°
2026-05-05 22:31 44.63707 -76.73477 34803 ft 545 kts 47°
2026-05-05 22:32 44.68400 -76.65098 34774 ft 546 kts 47°
2026-05-05 22:32 44.73056 -76.56760 34786 ft 546 kts 47°
2026-05-05 22:33 44.77737 -76.48352 34817 ft 546 kts 47°
2026-05-05 22:33 44.82428 -76.39905 34780 ft 548 kts 47°
2026-05-05 22:34 44.87119 -76.31431 34766 ft 548 kts 47°
2026-05-05 22:34 44.91429 -76.22612 34755 ft 554 kts 58°
2026-05-05 22:35 44.94626 -76.12679 34738 ft 559 kts 70°
2026-05-05 22:35 44.97060 -76.02275 34743 ft 558 kts 70°
2026-05-05 22:36 44.99469 -75.92117 34741 ft 558 kts 70°
2026-05-05 22:36 45.01950 -75.81831 34734 ft 558 kts 70°
2026-05-05 22:37 45.04455 -75.71459 34734 ft 558 kts 70°
2026-05-05 22:37 45.06944 -75.61085 34753 ft 557 kts 70°
2026-05-05 22:38 45.09419 -75.50705 34732 ft 556 kts 70°
2026-05-05 22:38 45.11882 -75.40324 34720 ft 556 kts 70°
2026-05-05 22:39 45.14321 -75.29999 34717 ft 556 kts 70°
2026-05-05 22:39 45.16762 -75.19615 34687 ft 555 kts 70°
2026-05-05 22:40 45.19191 -75.09233 34724 ft 555 kts 70°
2026-05-05 22:40 45.21553 -74.99098 34702 ft 556 kts 70°
2026-05-05 22:41 45.24164 -74.88791 34688 ft 554 kts 61°
2026-05-05 22:41 45.28140 -74.79551 34693 ft 546 kts 47°
2026-05-05 22:42 45.33172 -74.71727 34686 ft 538 kts 39°
2026-05-05 22:42 45.38382 -74.64079 34679 ft 539 kts 40°
2026-05-05 22:43 45.43548 -74.56344 34675 ft 540 kts 41°
2026-05-05 22:43 45.48702 -74.48546 34675 ft 540 kts 41°
2026-05-05 22:44 45.53818 -74.40780 34674 ft 542 kts 41°
2026-05-05 22:44 45.58987 -74.32920 34669 ft 544 kts 41°
2026-05-05 22:45 45.64165 -74.25029 34668 ft 545 kts 41°
2026-05-05 22:45 45.69354 -74.17096 34669 ft 546 kts 41°
2026-05-05 22:46 45.74534 -74.09153 34635 ft 546 kts 41°
2026-05-05 22:46 45.79665 -74.01260 34647 ft 544 kts 41°
2026-05-05 22:47 45.84705 -73.93486 34667 ft 543 kts 41°
2026-05-05 22:47 45.89841 -73.85544 34658 ft 543 kts 41°
2026-05-05 22:48 45.94973 -73.77584 34648 ft 543 kts 41°
2026-05-05 22:48 46.00058 -73.69674 34657 ft 543 kts 42°
2026-05-05 22:49 46.05189 -73.61669 34659 ft 545 kts 42°
2026-05-05 22:49 46.10339 -73.53609 34642 ft 547 kts 42°
2026-05-05 22:50 46.15495 -73.45514 34638 ft 549 kts 42°
2026-05-05 22:50 46.20625 -73.37420 34633 ft 552 kts 44°
2026-05-05 22:51 46.25397 -73.28652 34639 ft 558 kts 50°
2026-05-05 22:51 46.29931 -73.19522 34642 ft 560 kts 51°
2026-05-05 22:52 46.34485 -73.10356 34650 ft 562 kts 51°
2026-05-05 22:52 46.39065 -73.01259 34644 ft 563 kts 50°
2026-05-05 22:53 46.43605 -72.92282 34642 ft 563 kts 50°
2026-05-05 22:53 46.48230 -72.83107 34621 ft 563 kts 50°
2026-05-05 22:54 46.52836 -72.73921 34627 ft 562 kts 51°
2026-05-05 22:54 46.57419 -72.64747 34631 ft 561 kts 51°
2026-05-05 22:55 46.61961 -72.55627 34624 ft 560 kts 51°
2026-05-05 22:55 46.66522 -72.46442 34661 ft 560 kts 51°
2026-05-05 22:56 46.71084 -72.37222 34633 ft 562 kts 51°
2026-05-05 22:56 46.75624 -72.28019 34632 ft 563 kts 51°
2026-05-05 22:57 46.80191 -72.18725 34644 ft 563 kts 51°
2026-05-05 22:57 46.84746 -72.09425 34628 ft 563 kts 52°
2026-05-05 22:58 46.89292 -72.00114 34616 ft 562 kts 52°
2026-05-05 22:58 46.93732 -71.90991 34619 ft 562 kts 52°
2026-05-05 22:59 46.98221 -71.81735 34651 ft 561 kts 52°
2026-05-05 22:59 47.02724 -71.72419 34621 ft 561 kts 52°
2026-05-05 23:00 47.09472 -71.58403 34604 ft 562 kts 52°
2026-05-05 23:00 47.13966 -71.49026 34662 ft 561 kts 53°
2026-05-05 23:01 47.18427 -71.39683 34624 ft 563 kts 53°
2026-05-05 23:01 47.22922 -71.30228 34645 ft 565 kts 53°
2026-05-05 23:02 47.27428 -71.20747 34653 ft 566 kts 53°
2026-05-05 23:02 47.31930 -71.11218 34649 ft 566 kts 53°
2026-05-05 23:03 47.36393 -71.01739 34635 ft 567 kts 53°
2026-05-05 23:03 47.40796 -70.92392 34626 ft 563 kts 53°
2026-05-05 23:04 47.45206 -70.82966 34600 ft 554 kts 53°
2026-05-05 23:04 47.49596 -70.73579 34603 ft 556 kts 53°
2026-05-05 23:05 47.53938 -70.64186 34622 ft 557 kts 53°
2026-05-05 23:05 47.58332 -70.54708 34588 ft 559 kts 54°
2026-05-05 23:06 47.62726 -70.45193 34616 ft 560 kts 54°
2026-05-05 23:06 47.67127 -70.35631 34595 ft 562 kts 54°
2026-05-05 23:07 47.71524 -70.26039 34579 ft 558 kts 54°
2026-05-05 23:07 47.75812 -70.16645 34570 ft 550 kts 54°
2026-05-05 23:08 47.80102 -70.07223 34598 ft 551 kts 54°
2026-05-05 23:08 47.84323 -69.97922 34589 ft 554 kts 54°
2026-05-05 23:09 47.88646 -69.88370 34592 ft 558 kts 54°
2026-05-05 23:09 47.92977 -69.78744 34575 ft 560 kts 54°
2026-05-05 23:10 47.97291 -69.69134 34575 ft 563 kts 55°
2026-05-05 23:10 48.01640 -69.59412 34569 ft 563 kts 55°
2026-05-05 23:11 48.05971 -69.49694 34554 ft 561 kts 55°
2026-05-05 23:11 48.10244 -69.40074 34565 ft 558 kts 55°
2026-05-05 23:12 48.14425 -69.30322 34556 ft 556 kts 60°
2026-05-05 23:12 48.17606 -69.19799 34572 ft 554 kts 70°
2026-05-05 23:13 48.20421 -69.09047 34564 ft 555 kts 69°
2026-05-05 23:13 48.23208 -68.98547 34548 ft 556 kts 69°
2026-05-05 23:14 48.26072 -68.87869 34568 ft 555 kts 69°
2026-05-05 23:14 48.28952 -68.77116 34574 ft 555 kts 69°
2026-05-05 23:15 48.31819 -68.66358 34575 ft 555 kts 69°
2026-05-05 23:15 48.34672 -68.55585 34570 ft 554 kts 69°
2026-05-05 23:16 48.37492 -68.44884 34603 ft 554 kts 69°
2026-05-05 23:16 48.40319 -68.34102 34575 ft 553 kts 69°
2026-05-05 23:17 48.43130 -68.23337 34580 ft 552 kts 69°
2026-05-05 23:17 48.45923 -68.12589 34570 ft 551 kts 69°
2026-05-05 23:18 48.48683 -68.01920 34566 ft 550 kts 69°
2026-05-05 23:18 48.51388 -67.91418 34586 ft 550 kts 69°
2026-05-05 23:19 48.54150 -67.80636 34561 ft 551 kts 69°
2026-05-05 23:19 48.56900 -67.69854 34573 ft 550 kts 69°
2026-05-05 23:20 48.59618 -67.59144 34578 ft 550 kts 69°
2026-05-05 23:20 48.62345 -67.48353 34575 ft 549 kts 70°
2026-05-05 23:21 48.65060 -67.37556 34580 ft 550 kts 70°
2026-05-05 23:21 48.67766 -67.26741 34577 ft 550 kts 70°
2026-05-05 23:22 48.70444 -67.15993 34577 ft 550 kts 70°
2026-05-05 23:22 48.73128 -67.05157 34585 ft 550 kts 70°
2026-05-05 23:23 48.75749 -66.94530 34579 ft 550 kts 70°
2026-05-05 23:23 48.78417 -66.83658 34573 ft 550 kts 70°
2026-05-05 23:24 48.81077 -66.72774 34588 ft 550 kts 70°
2026-05-05 23:24 48.83709 -66.61951 34556 ft 550 kts 70°
2026-05-05 23:25 48.86334 -66.51090 34583 ft 547 kts 71°
2026-05-05 23:25 48.88942 -66.40258 34595 ft 545 kts 71°
2026-05-05 23:26 48.91532 -66.29440 34595 ft 544 kts 71°
2026-05-05 23:26 48.94093 -66.18696 34584 ft 544 kts 71°
2026-05-05 23:27 48.96664 -66.07879 34580 ft 544 kts 71°
2026-05-05 23:27 48.99162 -65.97279 34563 ft 543 kts 71°
2026-05-05 23:28 49.01683 -65.86503 34582 ft 541 kts 71°
2026-05-05 23:28 49.04203 -65.75721 34567 ft 539 kts 71°
2026-05-05 23:29 49.06697 -65.65028 34563 ft 539 kts 71°
2026-05-05 23:29 49.09192 -65.54250 34563 ft 539 kts 71°
2026-05-05 23:30 49.11660 -65.43516 34546 ft 539 kts 71°
2026-05-05 23:30 49.14115 -65.32789 34571 ft 539 kts 71°
2026-05-05 23:31 49.16575 -65.21974 34563 ft 540 kts 71°
2026-05-05 23:31 49.19037 -65.11130 34551 ft 540 kts 72°
2026-05-05 23:32 49.21484 -65.00277 34560 ft 540 kts 71°
2026-05-05 23:32 49.23877 -64.89625 34561 ft 541 kts 72°
2026-05-05 23:33 49.26299 -64.78777 34555 ft 543 kts 72°
2026-05-05 23:33 49.28730 -64.67825 34569 ft 544 kts 72°
2026-05-05 23:34 49.31155 -64.56848 34562 ft 544 kts 72°
2026-05-05 23:34 49.33570 -64.45855 34552 ft 544 kts 72°
2026-05-05 23:35 49.35959 -64.34928 34579 ft 544 kts 72°
2026-05-05 23:35 49.38350 -64.23928 34577 ft 544 kts 72°
2026-05-05 23:36 49.40732 -64.12916 34603 ft 543 kts 72°
2026-05-05 23:36 49.43100 -64.01908 34617 ft 542 kts 72°
2026-05-05 23:37 49.45403 -63.91143 34629 ft 542 kts 72°
2026-05-05 23:37 49.47748 -63.80126 34637 ft 542 kts 72°
2026-05-05 23:38 49.50065 -63.69179 34636 ft 542 kts 72°
2026-05-05 23:38 49.52387 -63.58149 34660 ft 542 kts 72°
2026-05-05 23:39 49.54698 -63.47111 34654 ft 541 kts 72°
2026-05-05 23:39 49.56999 -63.36066 34666 ft 541 kts 72°
2026-05-05 23:40 49.59272 -63.25091 34675 ft 541 kts 72°
2026-05-05 23:40 49.61548 -63.14038 34676 ft 541 kts 72°
2026-05-05 23:41 49.63813 -63.02975 34673 ft 541 kts 72°
2026-05-05 23:41 49.66019 -62.92149 34662 ft 540 kts 72°
2026-05-05 23:42 49.68246 -62.81152 34665 ft 540 kts 72°
2026-05-05 23:42 49.70477 -62.70076 34662 ft 540 kts 72°
2026-05-05 23:43 49.72699 -62.58983 34672 ft 541 kts 73°
2026-05-05 23:43 49.74913 -62.47862 34665 ft 542 kts 73°
2026-05-05 23:44 49.77120 -62.36719 34670 ft 542 kts 73°
2026-05-05 23:44 49.79301 -62.25637 34652 ft 542 kts 72°
2026-05-05 23:45 49.81488 -62.14464 34664 ft 543 kts 72°
2026-05-05 23:45 49.83668 -62.03264 34676 ft 543 kts 72°
2026-05-05 23:46 49.85791 -61.92290 34671 ft 544 kts 72°
2026-05-05 23:46 49.87952 -61.81055 34681 ft 544 kts 73°
2026-05-05 23:47 49.90088 -61.69884 34681 ft 544 kts 73°
2026-05-05 23:47 49.92228 -61.58621 34666 ft 544 kts 72°
2026-05-05 23:48 49.94355 -61.47364 34684 ft 543 kts 72°
2026-05-05 23:48 49.96468 -61.36113 34702 ft 543 kts 72°
2026-05-05 23:49 49.98557 -61.24924 34701 ft 543 kts 73°
2026-05-05 23:49 50.00642 -61.13687 34702 ft 543 kts 73°
2026-05-05 23:50 50.02722 -61.02407 34735 ft 543 kts 73°
2026-05-05 23:50 50.04748 -60.91357 34724 ft 543 kts 73°
2026-05-05 23:51 50.06808 -60.80045 34729 ft 544 kts 73°
2026-05-05 23:51 50.08846 -60.68794 34726 ft 544 kts 73°
2026-05-05 23:52 50.10887 -60.57450 34733 ft 544 kts 73°
2026-05-05 23:52 50.12916 -60.46100 34741 ft 544 kts 73°
2026-05-05 23:53 50.14936 -60.34731 34742 ft 544 kts 73°
2026-05-05 23:53 50.16943 -60.23367 34750 ft 543 kts 73°
2026-05-05 23:54 50.18920 -60.12096 34751 ft 542 kts 73°
2026-05-05 23:54 50.20897 -60.00755 34761 ft 541 kts 73°
2026-05-05 23:55 50.22823 -59.89637 34761 ft 541 kts 73°
2026-05-05 23:55 50.24775 -59.78298 34771 ft 541 kts 73°
2026-05-05 23:56 50.26702 -59.67027 34772 ft 541 kts 73°
2026-05-05 23:56 50.28631 -59.55670 34764 ft 540 kts 73°
2026-05-05 23:57 50.30546 -59.44326 34776 ft 539 kts 73°
2026-05-05 23:57 50.32448 -59.32985 34785 ft 539 kts 73°
2026-05-05 23:58 50.34342 -59.21616 34797 ft 540 kts 73°
2026-05-05 23:58 50.36213 -59.10311 34790 ft 540 kts 73°
2026-05-05 23:59 50.38050 -58.99133 34794 ft 540 kts 73°
2026-05-05 23:59 50.39911 -58.87734 34802 ft 540 kts 73°
2026-05-06 00:00 50.41445 -58.78284 34803 ft 539 kts 73°
2026-05-06 00:00 50.43577 -58.65056 34816 ft 539 kts 73°
2026-05-06 00:01 50.45402 -58.53648 34805 ft 539 kts 74°
2026-05-06 00:01 50.47214 -58.42241 34812 ft 538 kts 74°
2026-05-06 00:02 50.48710 -58.32767 34812 ft 538 kts 74°
2026-05-06 00:02 50.50803 -58.19421 34820 ft 538 kts 73°
2026-05-06 00:03 50.52565 -58.08090 34823 ft 538 kts 73°
2026-05-06 00:03 50.54297 -57.96886 34825 ft 538 kts 73°
2026-05-06 00:04 50.55757 -57.87371 34814 ft 538 kts 73°
2026-05-06 00:04 50.57504 -57.75920 34813 ft 538 kts 74°
2026-05-06 00:05 50.60380 -57.56880 34813 ft 537 kts 73°
2026-05-06 00:06 50.61811 -57.47321 34802 ft 534 kts 73°
2026-05-06 00:06 50.63486 -57.36047 34803 ft 530 kts 73°
2026-05-06 00:07 50.65150 -57.24777 34799 ft 527 kts 74°
2026-05-06 00:07 50.66796 -57.13553 34810 ft 525 kts 74°
2026-05-06 00:08 50.68431 -57.02325 34826 ft 526 kts 74°
2026-05-06 00:08 50.70017 -56.91354 34825 ft 527 kts 74°
2026-05-06 00:09 50.71636 -56.80066 34832 ft 528 kts 74°
2026-05-06 00:09 50.73246 -56.68751 34823 ft 528 kts 74°
2026-05-06 00:10 50.74845 -56.57437 34838 ft 528 kts 74°
2026-05-06 00:10 50.76422 -56.46188 34839 ft 528 kts 74°
2026-05-06 00:11 50.78000 -56.34848 34849 ft 529 kts 74°
2026-05-06 00:11 50.79568 -56.23492 34855 ft 529 kts 74°
2026-05-06 00:12 50.81124 -56.12141 34845 ft 528 kts 74°
2026-05-06 00:12 50.82656 -56.00871 34847 ft 527 kts 74°
2026-05-06 00:13 50.84156 -55.89752 34859 ft 527 kts 74°
2026-05-06 00:13 50.85674 -55.78417 34861 ft 526 kts 74°
2026-05-06 00:14 50.87180 -55.67084 34877 ft 526 kts 75°
2026-05-06 00:14 50.88665 -55.55818 34874 ft 526 kts 75°
2026-05-06 00:15 50.90149 -55.44471 34885 ft 526 kts 75°
2026-05-06 00:15 50.91621 -55.33115 34895 ft 526 kts 75°
2026-05-06 00:16 50.93083 -55.21751 34905 ft 526 kts 75°
2026-05-06 00:16 50.94524 -55.10459 34901 ft 526 kts 75°
2026-05-06 00:17 50.95938 -54.99286 34895 ft 526 kts 75°
2026-05-06 00:17 50.97368 -54.87898 34896 ft 526 kts 75°
2026-05-06 00:18 50.98785 -54.76508 34898 ft 526 kts 75°
2026-05-06 00:18 51.00186 -54.65157 34902 ft 526 kts 75°
2026-05-06 00:19 51.01571 -54.53838 34900 ft 526 kts 75°
2026-05-06 00:19 51.02954 -54.42435 34901 ft 526 kts 76°
2026-05-06 00:20 51.04326 -54.31030 34898 ft 526 kts 76°
2026-05-06 00:20 51.05687 -54.19614 34907 ft 526 kts 76°
2026-05-06 00:21 51.07028 -54.08271 34905 ft 526 kts 76°
2026-05-06 00:21 51.08337 -53.97104 34934 ft 526 kts 76°
2026-05-06 00:22 51.09668 -53.85648 34918 ft 527 kts 76°
2026-05-06 00:22 51.10988 -53.74173 34915 ft 528 kts 76°
2026-05-06 00:23 51.12290 -53.62756 34921 ft 528 kts 76°
2026-05-06 00:23 51.13591 -53.51253 34920 ft 528 kts 76°
2026-05-06 00:24 51.14880 -53.39740 34953 ft 528 kts 76°
2026-05-06 00:24 51.16180 -53.28208 34935 ft 529 kts 74°
2026-05-06 00:25 51.18278 -53.17077 34923 ft 521 kts 62°
2026-05-06 00:25 51.21229 -53.06628 34932 ft 521 kts 60°
2026-05-06 00:26 51.24118 -52.96269 34931 ft 522 kts 61°
2026-05-06 00:26 51.27025 -52.85640 34937 ft 523 kts 61°
2026-05-06 00:27 51.29918 -52.74962 34930 ft 524 kts 62°
2026-05-06 00:27 51.32788 -52.64321 34932 ft 525 kts 62°
2026-05-06 00:28 51.35670 -52.53591 34929 ft 525 kts 62°
2026-05-06 00:28 51.38545 -52.42846 34960 ft 525 kts 62°
2026-05-06 00:29 51.41410 -52.32090 34931 ft 525 kts 62°
2026-05-06 00:29 51.44238 -52.21417 34931 ft 523 kts 62°
2026-05-06 00:30 51.47065 -52.10703 34929 ft 522 kts 62°
2026-05-06 00:30 51.49883 -51.99972 34932 ft 522 kts 62°
2026-05-06 00:31 51.52641 -51.89424 34937 ft 522 kts 62°
2026-05-06 00:31 51.55420 -51.78741 34932 ft 522 kts 63°
2026-05-06 00:32 51.58205 -51.67982 34930 ft 521 kts 63°
2026-05-06 00:32 51.60982 -51.57207 34933 ft 521 kts 63°
2026-05-06 00:33 51.63750 -51.46414 34945 ft 522 kts 63°
2026-05-06 00:33 51.66513 -51.35588 34930 ft 522 kts 63°
2026-05-06 00:34 51.69245 -51.24829 34937 ft 522 kts 63°
2026-05-06 00:34 51.71985 -51.13989 34930 ft 522 kts 63°
2026-05-06 00:35 51.74716 -51.03135 34956 ft 522 kts 64°
2026-05-06 00:35 51.77365 -50.92555 34942 ft 522 kts 64°
2026-05-06 00:36 51.80073 -50.81684 34936 ft 522 kts 64°
2026-05-06 00:36 51.82771 -50.70798 34932 ft 521 kts 64°
2026-05-06 00:37 51.85456 -50.59914 34932 ft 521 kts 64°
2026-05-06 00:37 51.88131 -50.49017 34938 ft 521 kts 64°
2026-05-06 00:38 51.90776 -50.38189 34941 ft 521 kts 64°
2026-05-06 00:38 51.93431 -50.27270 34933 ft 521 kts 64°
2026-05-06 00:39 51.96077 -50.16328 34939 ft 521 kts 65°
2026-05-06 00:39 51.98713 -50.05377 34952 ft 522 kts 65°
2026-05-06 00:40 52.00942 -49.94386 34932 ft 525 kts 74°
2026-05-06 00:40 52.02534 -49.82909 34935 ft 525 kts 75°
2026-05-06 00:41 52.04129 -49.71356 34948 ft 524 kts 74°
2026-05-06 00:41 52.05752 -49.59807 34936 ft 524 kts 74°
2026-05-06 00:42 52.07380 -49.48269 34943 ft 524 kts 75°
2026-05-06 00:42 52.08987 -49.36812 34941 ft 523 kts 75°
2026-05-06 00:43 52.10587 -49.25296 34943 ft 522 kts 75°
2026-05-06 00:43 52.12173 -49.13786 34944 ft 521 kts 75°
2026-05-06 00:44 52.13745 -49.02279 34951 ft 521 kts 75°
2026-05-06 00:44 52.15271 -48.91034 34959 ft 521 kts 76°
2026-05-06 00:45 52.16822 -48.79498 34956 ft 521 kts 76°
2026-05-06 00:45 52.18362 -48.67961 34956 ft 521 kts 76°
2026-05-06 00:46 52.19890 -48.56420 34941 ft 521 kts 76°
2026-05-06 00:46 52.21407 -48.44875 34953 ft 521 kts 76°
2026-05-06 00:47 52.22902 -48.33398 34968 ft 521 kts 76°
2026-05-06 00:47 52.24397 -48.21830 34961 ft 521 kts 77°
2026-05-06 00:48 52.25881 -48.10252 34960 ft 521 kts 77°
2026-05-06 00:48 52.27322 -47.98910 34964 ft 521 kts 77°
2026-05-06 00:49 52.28774 -47.87399 34964 ft 521 kts 77°
2026-05-06 00:49 52.30224 -47.75801 34973 ft 521 kts 77°
2026-05-06 00:50 52.31661 -47.64205 34968 ft 521 kts 77°
2026-05-06 00:50 52.33086 -47.52603 34975 ft 520 kts 78°
2026-05-06 00:51 52.34490 -47.41076 34967 ft 520 kts 78°
2026-05-06 00:51 52.35891 -47.29478 34972 ft 520 kts 78°
2026-05-06 00:52 52.37281 -47.17869 34979 ft 520 kts 78°
2026-05-06 00:52 52.38660 -47.06247 34978 ft 520 kts 78°
2026-05-06 00:53 52.40000 -46.94857 34983 ft 520 kts 78°
2026-05-06 00:53 52.41346 -46.83307 34983 ft 520 kts 78°
2026-05-06 00:54 52.42691 -46.71670 34981 ft 520 kts 78°
2026-05-06 00:54 52.44024 -46.60028 34988 ft 520 kts 79°
2026-05-06 00:55 52.45347 -46.48361 34983 ft 520 kts 79°
2026-05-06 00:55 52.46658 -46.36698 34987 ft 520 kts 79°
2026-05-06 00:56 52.47949 -46.25103 34994 ft 520 kts 79°
2026-05-06 00:56 52.49236 -46.13430 34994 ft 520 kts 79°
2026-05-06 00:57 52.50511 -46.01755 34999 ft 519 kts 79°
2026-05-06 00:57 52.51749 -45.90314 34987 ft 519 kts 79°
2026-05-06 00:58 52.52991 -45.78729 35002 ft 518 kts 79°
2026-05-06 00:58 52.54228 -45.67069 35007 ft 519 kts 79°
2026-05-06 00:59 52.55457 -45.55381 35017 ft 520 kts 80°
2026-05-06 00:59 52.56064 -45.49557 35537 ft 512 kts 80°
2026-05-06 00:59 52.56660 -45.43823 36027 ft 508 kts 80°
2026-05-06 00:59 52.57251 -45.38093 36332 ft 508 kts 81°
2026-05-06 01:00 52.57833 -45.32434 36544 ft 509 kts 81°
2026-05-06 01:00 52.58420 -45.26689 36762 ft 510 kts 81°
2026-05-06 01:00 52.59006 -45.20929 36941 ft 512 kts 81°
2026-05-06 01:01 52.60175 -45.09356 37022 ft 513 kts 81°
2026-05-06 01:01 52.61308 -44.98022 37013 ft 509 kts 81°
2026-05-06 01:02 52.62443 -44.86554 37027 ft 507 kts 81°
2026-05-06 01:02 52.63555 -44.75196 37031 ft 506 kts 81°
2026-05-06 01:03 52.64663 -44.63766 37032 ft 506 kts 81°
2026-05-06 01:03 52.65763 -44.52300 37033 ft 507 kts 81°
2026-05-06 01:04 52.66855 -44.40796 37039 ft 509 kts 81°
2026-05-06 01:04 52.67931 -44.29334 37038 ft 510 kts 82°
2026-05-06 01:05 52.69004 -44.17779 37035 ft 510 kts 82°
2026-05-06 01:05 52.70066 -44.06222 37042 ft 509 kts 82°
2026-05-06 01:06 52.71158 -43.94195 37049 ft 509 kts 82°
2026-05-06 01:06 52.72194 -43.82664 37048 ft 508 kts 82°
2026-05-06 01:07 52.73218 -43.71134 37055 ft 507 kts 82°
2026-05-06 01:07 52.74221 -43.59698 37052 ft 507 kts 83°
2026-05-06 01:08 52.75219 -43.48197 37054 ft 506 kts 83°
2026-05-06 01:08 52.76205 -43.36697 37062 ft 506 kts 83°
2026-05-06 01:09 52.77179 -43.25207 37054 ft 505 kts 83°
2026-05-06 01:09 52.78136 -43.13783 37061 ft 505 kts 83°
2026-05-06 01:10 52.79087 -43.02283 37069 ft 506 kts 83°
2026-05-06 01:10 52.80010 -42.91003 37072 ft 506 kts 83°
2026-05-06 01:11 52.80941 -42.79471 37071 ft 506 kts 83°
2026-05-06 01:11 52.81861 -42.67934 37074 ft 506 kts 83°
2026-05-06 01:12 52.82765 -42.56465 37080 ft 506 kts 84°
2026-05-06 01:12 52.83662 -42.44922 37075 ft 506 kts 84°
2026-05-06 01:13 52.84548 -42.33377 37069 ft 506 kts 84°
2026-05-06 01:13 52.85416 -42.21927 37082 ft 505 kts 84°
2026-05-06 01:14 52.86705 -42.04629 37084 ft 505 kts 84°
2026-05-06 01:14 52.87535 -41.93302 37094 ft 504 kts 84°
2026-05-06 01:15 52.88368 -41.81779 37089 ft 504 kts 84°
2026-05-06 01:15 52.89190 -41.70250 37096 ft 504 kts 84°
2026-05-06 01:16 52.89996 -41.58792 37098 ft 504 kts 84°
2026-05-06 01:16 52.90794 -41.47282 37104 ft 504 kts 84°
2026-05-06 01:17 52.91583 -41.35737 37105 ft 504 kts 85°
2026-05-06 01:17 52.92360 -41.24195 37111 ft 504 kts 85°
2026-05-06 01:18 52.93121 -41.12727 37106 ft 504 kts 85°
2026-05-06 01:18 52.93875 -41.01188 37115 ft 504 kts 85°
2026-05-06 01:19 52.94603 -40.89874 37110 ft 503 kts 85°
2026-05-06 01:19 52.95335 -40.78331 37118 ft 503 kts 85°
2026-05-06 01:20 52.96055 -40.66792 37115 ft 503 kts 85°
2026-05-06 01:20 52.96758 -40.55341 37121 ft 502 kts 85°
2026-05-06 01:21 52.97455 -40.43814 37120 ft 502 kts 86°
2026-05-06 01:21 52.98140 -40.32293 37130 ft 502 kts 86°
2026-05-06 01:22 52.98814 -40.20761 37136 ft 502 kts 86°
2026-05-06 01:22 52.99479 -40.09225 37137 ft 502 kts 86°
2026-05-06 01:23 53.00228 -39.98040 37135 ft 503 kts 81°
2026-05-06 01:23 53.01831 -39.86727 37144 ft 503 kts 77°
2026-05-06 01:24 53.03507 -39.75431 37145 ft 504 kts 78°
2026-05-06 01:24 53.05142 -39.64110 37139 ft 504 kts 78°
2026-05-06 01:25 53.06734 -39.52851 37153 ft 504 kts 78°
2026-05-06 01:25 53.08318 -39.41512 37146 ft 503 kts 78°
2026-05-06 01:26 53.09894 -39.30162 37152 ft 503 kts 78°
2026-05-06 01:26 53.11459 -39.18806 37160 ft 504 kts 78°
2026-05-06 01:27 53.13005 -39.07511 37161 ft 504 kts 79°
2026-05-06 01:27 53.14518 -38.96375 37161 ft 504 kts 79°
2026-05-06 01:28 53.16054 -38.84984 37162 ft 504 kts 79°
2026-05-06 01:28 53.17578 -38.73587 37163 ft 504 kts 79°
2026-05-06 01:29 53.19090 -38.62191 37163 ft 504 kts 79°
2026-05-06 01:29 53.20583 -38.50856 37174 ft 503 kts 79°
2026-05-06 01:30 53.22069 -38.39477 37175 ft 503 kts 79°
2026-05-06 01:30 53.23548 -38.28065 37162 ft 503 kts 79°
2026-05-06 01:31 53.25014 -38.16653 37168 ft 503 kts 79°
2026-05-06 01:31 53.26471 -38.05223 37178 ft 503 kts 79°
2026-05-06 01:32 53.27876 -37.94113 37167 ft 502 kts 79°
2026-05-06 01:32 53.29308 -37.82699 37174 ft 502 kts 79°
2026-05-06 01:33 53.30727 -37.71291 37173 ft 501 kts 80°
2026-05-06 01:33 53.32134 -37.59886 37175 ft 501 kts 80°
2026-05-06 01:34 53.33520 -37.48558 37164 ft 500 kts 80°
2026-05-06 01:34 53.34901 -37.37174 37171 ft 499 kts 80°
2026-05-06 01:35 53.36268 -37.25801 37172 ft 498 kts 80°
2026-05-06 01:35 53.37624 -37.14433 37173 ft 497 kts 80°
2026-05-06 01:36 53.38958 -37.03144 37173 ft 497 kts 80°
2026-05-06 01:36 53.40262 -36.92020 37167 ft 497 kts 81°
2026-05-06 01:37 53.41583 -36.80656 37168 ft 497 kts 81°
2026-05-06 01:37 53.42893 -36.69280 37176 ft 497 kts 81°
2026-05-06 01:38 53.44183 -36.57974 37172 ft 497 kts 81°
2026-05-06 01:38 53.45474 -36.46572 37172 ft 498 kts 81°
2026-05-06 01:39 53.46753 -36.35163 37172 ft 497 kts 81°
2026-05-06 01:39 53.48020 -36.23763 37173 ft 496 kts 81°
2026-05-06 01:40 53.49265 -36.12454 37168 ft 495 kts 81°
2026-05-06 01:40 53.50505 -36.01078 37173 ft 495 kts 82°
2026-05-06 01:41 53.51709 -35.89942 37166 ft 494 kts 82°
2026-05-06 01:41 53.52925 -35.78586 37167 ft 493 kts 82°
2026-05-06 01:42 53.54030 -35.68172 37157 ft 492 kts 82°
2026-05-06 01:42 53.55220 -35.56859 37166 ft 491 kts 82°
2026-05-06 01:43 53.56399 -35.45536 37159 ft 491 kts 82°
2026-05-06 01:43 53.57567 -35.34211 37159 ft 492 kts 82°
2026-05-06 01:44 53.58724 -35.22878 37162 ft 491 kts 82°
2026-05-06 01:44 53.59863 -35.11618 37159 ft 491 kts 82°
2026-05-06 01:45 53.60998 -35.00285 37142 ft 491 kts 82°
2026-05-06 01:45 53.62100 -34.89174 37157 ft 491 kts 83°
2026-05-06 01:46 53.63206 -34.77907 37155 ft 490 kts 83°
2026-05-06 01:46 53.64307 -34.66588 37153 ft 489 kts 83°
2026-05-06 01:47 53.65395 -34.55274 37149 ft 488 kts 83°
2026-05-06 01:47 53.66470 -34.43984 37147 ft 488 kts 83°
2026-05-06 01:48 53.67533 -34.32695 37148 ft 487 kts 83°
2026-05-06 01:48 53.68577 -34.21495 37129 ft 487 kts 84°
2026-05-06 01:49 53.69618 -34.10215 37143 ft 486 kts 84°
2026-05-06 01:49 53.70627 -33.99157 37142 ft 486 kts 84°
2026-05-06 01:50 53.71646 -33.87870 37140 ft 487 kts 84°
2026-05-06 01:50 53.72655 -33.76574 37139 ft 487 kts 84°
2026-05-06 01:51 53.73647 -33.65335 37136 ft 487 kts 84°
2026-05-06 01:51 53.74637 -33.54012 37136 ft 487 kts 84°
2026-05-06 01:52 53.75615 -33.42680 37137 ft 488 kts 84°
2026-05-06 01:52 53.76584 -33.31336 37135 ft 488 kts 84°
2026-05-06 01:53 53.77535 -33.20065 37136 ft 488 kts 84°
2026-05-06 01:53 53.78483 -33.08712 37116 ft 488 kts 84°
2026-05-06 01:54 53.79401 -32.97578 37130 ft 487 kts 84°
2026-05-06 01:54 53.80325 -32.86234 37133 ft 487 kts 84°
2026-05-06 01:55 53.81239 -32.74881 37130 ft 487 kts 85°
2026-05-06 01:55 53.82136 -32.63596 37138 ft 487 kts 85°
2026-05-06 01:56 53.83028 -32.52242 37124 ft 487 kts 85°
2026-05-06 01:56 53.83909 -32.40894 37139 ft 486 kts 85°
2026-05-06 01:57 53.84778 -32.29548 37136 ft 486 kts 85°
2026-05-06 01:57 53.85630 -32.18282 37141 ft 485 kts 85°
2026-05-06 01:58 53.86476 -32.06947 37141 ft 485 kts 85°
2026-05-06 01:58 53.87297 -31.95814 37135 ft 484 kts 85°
2026-05-06 01:59 53.88120 -31.84499 37142 ft 483 kts 85°
2026-05-06 01:59 53.88925 -31.73290 37140 ft 482 kts 85°
2026-05-06 02:00 53.89722 -31.62022 37146 ft 481 kts 85°
2026-05-06 02:00 53.90509 -31.50757 37156 ft 481 kts 85°
2026-05-06 02:01 53.91285 -31.39486 37143 ft 481 kts 85°
2026-05-06 02:01 53.92045 -31.28295 37155 ft 480 kts 85°
2026-05-06 02:02 53.92799 -31.17043 37155 ft 480 kts 85°
2026-05-06 02:02 53.93541 -31.05799 37160 ft 479 kts 86°
2026-05-06 02:03 53.94259 -30.94762 37163 ft 479 kts 86°
2026-05-06 02:03 53.94975 -30.83590 37155 ft 479 kts 85°
2026-05-06 02:04 53.95685 -30.72357 37168 ft 478 kts 85°
2026-05-06 02:04 53.96384 -30.61122 37171 ft 478 kts 86°
2026-05-06 02:05 53.97072 -30.49887 37161 ft 478 kts 86°
2026-05-06 02:05 53.97746 -30.38715 37180 ft 479 kts 86°
2026-05-06 02:06 53.98415 -30.27449 37166 ft 480 kts 85°
2026-05-06 02:06 53.99074 -30.16160 37184 ft 480 kts 85°
2026-05-06 02:07 53.99726 -30.04853 37184 ft 481 kts 86°
2026-05-06 02:07 54.00770 -29.93922 37185 ft 483 kts 77°
2026-05-06 02:08 54.02412 -29.82856 37184 ft 483 kts 77°
2026-05-06 02:08 54.04033 -29.71770 37185 ft 483 kts 77°
2026-05-06 02:09 54.05617 -29.60658 37189 ft 483 kts 77°
2026-05-06 02:09 54.07170 -29.49609 37193 ft 483 kts 77°
2026-05-06 02:10 54.08720 -29.38475 37193 ft 483 kts 77°
2026-05-06 02:10 54.10260 -29.27333 37199 ft 483 kts 78°
2026-05-06 02:11 54.11791 -29.16182 37193 ft 483 kts 77°
2026-05-06 02:11 54.13302 -29.05102 37199 ft 483 kts 77°
2026-05-06 02:12 54.14784 -28.94157 37198 ft 483 kts 77°
2026-05-06 02:12 54.16284 -28.82988 37202 ft 483 kts 77°
2026-05-06 02:13 54.17773 -28.71817 37201 ft 483 kts 77°
2026-05-06 02:13 54.19240 -28.60722 37194 ft 483 kts 77°
2026-05-06 02:14 54.20709 -28.49536 37202 ft 483 kts 77°
2026-05-06 02:14 54.22167 -28.38340 37202 ft 483 kts 77°
2026-05-06 02:15 54.23616 -28.27131 37204 ft 483 kts 77°
2026-05-06 02:15 54.25044 -28.15985 37204 ft 483 kts 77°
2026-05-06 02:16 54.26472 -28.04762 37205 ft 483 kts 77°
2026-05-06 02:16 54.27866 -27.93714 37204 ft 483 kts 77°
2026-05-06 02:17 54.29275 -27.82460 37204 ft 484 kts 78°
2026-05-06 02:17 54.30664 -27.71274 37204 ft 484 kts 78°
2026-05-06 02:18 54.32051 -27.60008 37206 ft 484 kts 77°
2026-05-06 02:18 54.33429 -27.48729 37203 ft 484 kts 77°
2026-05-06 02:19 54.34795 -27.37447 37204 ft 484 kts 77°
2026-05-06 02:19 54.36151 -27.26157 37204 ft 484 kts 78°
2026-05-06 02:20 54.38157 -27.09279 37203 ft 484 kts 77°
2026-05-06 02:21 54.39462 -26.98182 37204 ft 484 kts 77°
2026-05-06 02:21 54.40782 -26.86863 37201 ft 484 kts 77°
2026-05-06 02:22 54.42092 -26.75532 37202 ft 484 kts 78°
2026-05-06 02:22 54.43382 -26.64272 37201 ft 484 kts 78°
2026-05-06 02:23 54.44670 -26.52925 37202 ft 484 kts 77°
2026-05-06 02:23 54.45949 -26.41566 37196 ft 484 kts 78°
2026-05-06 02:24 54.47208 -26.30283 37189 ft 484 kts 78°
2026-05-06 02:24 54.48465 -26.18912 37197 ft 484 kts 78°
2026-05-06 02:25 54.49711 -26.07543 37191 ft 484 kts 78°
2026-05-06 02:25 54.50925 -25.96361 37196 ft 484 kts 78°
2026-05-06 02:26 54.52150 -25.84971 37190 ft 484 kts 78°
2026-05-06 02:26 54.53357 -25.73645 37189 ft 484 kts 78°
2026-05-06 02:27 54.54559 -25.62252 37194 ft 484 kts 78°
2026-05-06 02:27 54.55752 -25.50846 37207 ft 484 kts 78°
2026-05-06 02:28 54.56926 -25.39505 37190 ft 484 kts 78°
2026-05-06 02:28 54.58098 -25.28085 37187 ft 484 kts 78°
2026-05-06 02:29 54.59257 -25.16666 37189 ft 484 kts 78°
2026-05-06 02:29 54.60408 -25.05224 37187 ft 484 kts 78°
2026-05-06 02:30 54.61527 -24.93993 37199 ft 484 kts 78°
2026-05-06 02:30 54.62649 -24.82607 37182 ft 484 kts 78°
2026-05-06 02:31 54.63768 -24.71144 37182 ft 484 kts 78°
2026-05-06 02:31 54.64876 -24.59674 37176 ft 485 kts 78°
2026-05-06 02:32 54.65973 -24.48190 37180 ft 485 kts 78°
2026-05-06 02:32 54.67052 -24.36781 37186 ft 485 kts 78°
2026-05-06 02:33 54.68130 -24.25272 37175 ft 485 kts 78°
2026-05-06 02:33 54.68483 -24.21474 37176 ft 485 kts 78°
2026-05-06 02:34 54.70253 -24.02231 37178 ft 485 kts 78°
2026-05-06 02:34 54.71272 -23.90990 37174 ft 485 kts 78°
2026-05-06 02:35 54.72306 -23.79454 37174 ft 486 kts 78°
2026-05-06 02:35 54.73329 -23.67910 37164 ft 486 kts 78°
2026-05-06 02:36 54.74342 -23.56354 37161 ft 485 kts 78°
2026-05-06 02:36 54.75336 -23.44885 37165 ft 485 kts 78°
2026-05-06 02:37 54.76326 -23.33330 37185 ft 485 kts 78°
2026-05-06 02:37 54.77306 -23.21756 37168 ft 486 kts 78°
2026-05-06 02:38 54.78276 -23.10178 37158 ft 486 kts 78°
2026-05-06 02:38 54.79210 -22.98881 37158 ft 486 kts 79°
2026-05-06 02:39 54.80158 -22.87288 37154 ft 486 kts 79°
2026-05-06 02:39 54.81094 -22.75693 37156 ft 486 kts 79°
2026-05-06 02:40 54.82019 -22.64092 37148 ft 486 kts 79°
2026-05-06 02:40 54.82933 -22.52485 37148 ft 486 kts 79°
2026-05-06 02:41 54.83831 -22.40942 37150 ft 486 kts 79°
2026-05-06 02:41 54.84724 -22.29320 37149 ft 486 kts 79°
2026-05-06 02:42 54.85605 -22.17681 37146 ft 487 kts 79°
2026-05-06 02:42 54.86478 -22.06031 37157 ft 487 kts 79°
2026-05-06 02:43 54.87317 -21.94666 37145 ft 487 kts 79°
2026-05-06 02:43 54.88167 -21.82997 37144 ft 487 kts 79°
2026-05-06 02:44 54.89006 -21.71321 37144 ft 487 kts 79°
2026-05-06 02:44 54.89835 -21.59629 37148 ft 488 kts 79°
2026-05-06 02:45 54.90647 -21.48012 37142 ft 488 kts 79°
2026-05-06 02:45 54.91454 -21.36304 37145 ft 488 kts 79°
2026-05-06 02:46 54.92249 -21.24599 37147 ft 487 kts 80°
2026-05-06 02:46 54.93032 -21.12902 37171 ft 487 kts 80°
2026-05-06 02:47 54.93800 -21.01265 37150 ft 488 kts 80°
2026-05-06 02:47 54.94547 -20.89761 37139 ft 488 kts 80°
2026-05-06 02:48 54.95298 -20.78033 37140 ft 488 kts 80°
2026-05-06 02:48 54.96037 -20.66308 37138 ft 488 kts 80°
2026-05-06 02:49 54.96760 -20.54655 37154 ft 488 kts 80°
2026-05-06 02:49 54.97478 -20.42902 37140 ft 488 kts 80°
2026-05-06 02:50 54.98185 -20.31131 37139 ft 489 kts 80°
2026-05-06 02:50 54.98880 -20.19371 37145 ft 489 kts 81°
2026-05-06 02:51 54.99557 -20.07744 37141 ft 489 kts 81°
2026-05-06 02:51 55.00131 -19.96168 37135 ft 491 kts 84°
2026-05-06 02:52 55.00366 -19.84285 37149 ft 491 kts 85°
2026-05-06 02:52 55.00550 -19.72382 37152 ft 492 kts 85°
2026-05-06 02:53 55.00741 -19.60559 37131 ft 492 kts 84°
2026-05-06 02:53 55.00939 -19.48644 37130 ft 492 kts 85°
2026-05-06 02:54 55.01129 -19.36727 37142 ft 492 kts 85°
2026-05-06 02:54 55.01307 -19.24794 37132 ft 493 kts 85°
2026-05-06 02:55 55.01471 -19.12943 37131 ft 493 kts 85°
2026-05-06 02:55 55.01625 -19.01010 37134 ft 492 kts 85°
2026-05-06 02:56 55.01764 -18.89307 37155 ft 492 kts 85°
2026-05-06 02:56 55.01895 -18.77369 37137 ft 493 kts 85°
2026-05-06 02:57 55.02013 -18.65499 37134 ft 493 kts 85°
2026-05-06 02:57 55.02120 -18.53538 37133 ft 494 kts 85°
2026-05-06 02:58 55.02216 -18.41573 37126 ft 494 kts 85°
2026-05-06 02:58 55.02300 -18.29611 37154 ft 494 kts 85°
2026-05-06 02:59 55.02361 -18.19654 37134 ft 495 kts 86°
2026-05-06 02:59 55.02433 -18.05722 37130 ft 495 kts 86°
2026-05-06 03:00 55.02481 -17.93977 37128 ft 495 kts 86°
2026-05-06 03:00 55.02518 -17.81977 37132 ft 495 kts 86°
2026-05-06 03:01 55.02544 -17.69976 37136 ft 496 kts 86°
2026-05-06 03:01 55.02557 -17.58037 37132 ft 496 kts 86°
2026-05-06 03:02 55.02559 -17.47970 37124 ft 495 kts 86°
2026-05-06 03:02 55.02549 -17.34030 37125 ft 495 kts 86°
2026-05-06 03:03 55.02532 -17.24069 37122 ft 494 kts 86°
2026-05-06 03:03 55.02494 -17.10071 37122 ft 494 kts 86°
2026-05-06 03:04 55.02450 -16.98392 37120 ft 494 kts 86°
2026-05-06 03:04 55.02394 -16.86419 37120 ft 494 kts 87°
2026-05-06 03:05 55.02338 -16.76479 37116 ft 494 kts 87°
2026-05-06 03:05 55.02246 -16.62567 37129 ft 494 kts 87°
2026-05-06 03:06 55.02171 -16.52530 37121 ft 495 kts 87°
2026-05-06 03:06 55.02070 -16.40613 37119 ft 495 kts 87°
2026-05-06 03:07 55.01956 -16.28603 37111 ft 496 kts 87°
2026-05-06 03:07 55.01830 -16.16586 37114 ft 496 kts 88°
2026-05-06 03:08 55.01669 -16.02620 37137 ft 496 kts 88°
2026-05-06 03:08 55.01522 -15.90823 37113 ft 497 kts 88°
2026-05-06 03:09 55.01387 -15.80814 37109 ft 497 kts 88°
2026-05-06 03:09 55.01214 -15.68783 37109 ft 497 kts 88°
2026-05-06 03:10 55.01030 -15.56754 37111 ft 497 kts 88°
2026-05-06 03:10 55.00835 -15.44814 37129 ft 497 kts 88°
2026-05-06 03:11 55.00626 -15.32781 37110 ft 497 kts 88°
2026-05-06 03:11 55.00406 -15.20744 37104 ft 497 kts 88°
2026-05-06 03:12 55.00176 -15.08713 37110 ft 497 kts 88°
2026-05-06 03:12 54.99950 -14.96982 37108 ft 497 kts 88°
2026-05-06 03:13 54.99964 -14.84975 37117 ft 496 kts 85°
2026-05-06 03:13 55.00057 -14.72966 37105 ft 496 kts 86°
2026-05-06 03:14 55.00100 -14.60945 37098 ft 496 kts 86°
2026-05-06 03:14 55.00104 -14.48915 37109 ft 497 kts 86°
2026-05-06 03:15 55.00094 -14.36971 37112 ft 497 kts 86°
2026-05-06 03:15 55.00075 -14.24937 37102 ft 497 kts 87°
2026-05-06 03:16 55.00047 -14.12885 37103 ft 498 kts 87°
2026-05-06 03:16 54.99891 -14.00826 37096 ft 500 kts 92°
2026-05-06 03:17 54.98669 -13.89180 37102 ft 503 kts 101°
2026-05-06 03:17 54.97016 -13.77361 37103 ft 502 kts 101°
2026-05-06 03:18 54.95391 -13.65533 37103 ft 503 kts 101°
2026-05-06 03:18 54.93792 -13.53776 37109 ft 503 kts 101°
2026-05-06 03:19 54.92182 -13.41962 37101 ft 502 kts 101°
2026-05-06 03:19 54.90560 -13.30152 37101 ft 502 kts 101°
2026-05-06 03:20 54.88104 -13.12469 37122 ft 502 kts 102°
2026-05-06 03:20 54.86462 -13.00768 37104 ft 502 kts 102°
2026-05-06 03:21 54.84827 -12.89208 37100 ft 502 kts 102°
2026-05-06 03:21 54.83151 -12.77443 37096 ft 502 kts 102°
2026-05-06 03:22 54.81466 -12.65701 37102 ft 502 kts 102°
2026-05-06 03:22 54.79780 -12.54044 37115 ft 502 kts 103°
2026-05-06 03:23 54.78072 -12.42321 37097 ft 502 kts 103°
2026-05-06 03:23 54.76352 -12.30603 37095 ft 502 kts 103°
2026-05-06 03:24 54.74619 -12.18886 37098 ft 502 kts 103°
2026-05-06 03:24 54.72887 -12.07260 37098 ft 502 kts 103°
2026-05-06 03:25 54.71168 -11.95799 37110 ft 502 kts 103°
2026-05-06 03:25 54.69401 -11.84104 37098 ft 503 kts 103°
2026-05-06 03:26 54.67621 -11.72414 37093 ft 503 kts 104°
2026-05-06 03:26 54.65830 -11.60735 37099 ft 503 kts 104°
2026-05-06 03:27 54.64041 -11.49146 37095 ft 503 kts 104°
2026-05-06 03:27 54.62226 -11.37478 37096 ft 503 kts 104°
2026-05-06 03:28 54.60402 -11.25827 37098 ft 503 kts 104°
2026-05-06 03:28 54.58564 -11.14175 37098 ft 503 kts 104°
2026-05-06 03:29 54.56730 -11.02624 37098 ft 503 kts 104°
2026-05-06 03:29 54.54910 -10.91246 37099 ft 503 kts 104°
2026-05-06 03:30 54.53046 -10.79665 37111 ft 503 kts 105°
2026-05-06 03:30 54.51173 -10.68110 37093 ft 503 kts 105°
2026-05-06 03:31 54.49294 -10.56598 37098 ft 503 kts 105°
2026-05-06 03:31 54.47393 -10.45025 37094 ft 503 kts 105°
2026-05-06 03:32 54.45479 -10.33456 37095 ft 503 kts 105°
2026-05-06 03:32 54.43556 -10.21903 37095 ft 503 kts 105°
2026-05-06 03:33 54.41619 -10.10350 37097 ft 504 kts 106°
2026-05-06 03:33 54.39719 -9.99085 37093 ft 504 kts 106°
2026-05-06 03:34 54.37758 -9.87541 37091 ft 504 kts 106°
2026-05-06 03:34 54.35785 -9.75998 37083 ft 504 kts 106°
2026-05-06 03:35 54.33805 -9.64491 37087 ft 503 kts 106°
2026-05-06 03:35 54.31826 -9.53063 37092 ft 504 kts 107°
2026-05-06 03:36 54.29823 -9.41571 37088 ft 503 kts 107°
2026-05-06 03:36 54.27810 -9.30097 37091 ft 503 kts 107°
2026-05-06 03:37 54.25786 -9.18631 37087 ft 503 kts 107°
2026-05-06 03:37 54.23768 -9.07267 37086 ft 503 kts 107°
2026-05-06 03:38 54.21755 -8.96007 37094 ft 503 kts 107°
2026-05-06 03:38 54.19699 -8.84576 37088 ft 504 kts 107°
2026-05-06 03:39 54.17630 -8.73149 37068 ft 504 kts 107°
2026-05-06 03:39 54.15568 -8.61823 37081 ft 503 kts 107°
2026-05-06 03:40 54.13480 -8.50430 37087 ft 503 kts 108°
2026-05-06 03:40 54.11381 -8.39049 37086 ft 503 kts 108°
2026-05-06 03:41 54.09269 -8.27666 37087 ft 504 kts 108°
2026-05-06 03:41 54.07160 -8.16363 37086 ft 504 kts 108°
2026-05-06 03:42 54.05027 -8.05002 37076 ft 504 kts 108°
2026-05-06 03:42 54.02919 -7.93845 37081 ft 504 kts 108°
2026-05-06 03:43 54.00777 -7.82570 37079 ft 505 kts 108°
2026-05-06 03:43 53.98611 -7.71240 37068 ft 504 kts 109°
2026-05-06 03:44 53.96434 -7.59915 37068 ft 504 kts 109°
2026-05-06 03:44 53.94246 -7.48607 37069 ft 504 kts 109°
2026-05-06 03:45 53.92048 -7.37312 37075 ft 504 kts 109°
2026-05-06 03:45 53.89856 -7.26111 37068 ft 504 kts 109°
2026-05-06 03:46 53.87640 -7.14852 37068 ft 503 kts 109°
2026-05-06 03:46 53.85415 -7.03617 37065 ft 503 kts 109°
2026-05-06 03:47 53.83220 -6.92592 37066 ft 502 kts 109°
2026-05-06 03:47 53.80979 -6.81406 37059 ft 502 kts 109°
2026-05-06 03:48 53.78744 -6.70306 37056 ft 501 kts 110°
2026-05-06 03:48 53.76488 -6.59168 37055 ft 500 kts 110°
2026-05-06 03:49 53.74223 -6.48050 37053 ft 500 kts 110°
2026-05-06 03:49 53.71950 -6.36952 37049 ft 500 kts 110°
2026-05-06 03:50 53.69683 -6.25950 37050 ft 499 kts 110°
2026-05-06 03:50 53.67393 -6.14893 37040 ft 500 kts 110°
2026-05-06 03:51 53.65091 -6.03837 37041 ft 500 kts 110°
2026-05-06 03:51 53.62823 -5.93006 37040 ft 500 kts 110°
2026-05-06 03:52 53.60501 -5.81973 37043 ft 500 kts 110°
2026-05-06 03:52 53.58181 -5.71010 37034 ft 500 kts 110°
2026-05-06 03:53 53.55837 -5.59986 37034 ft 500 kts 110°
2026-05-06 03:53 53.53949 -5.48719 37033 ft 501 kts 101°
2026-05-06 03:54 53.53311 -5.37141 37044 ft 501 kts 91°
2026-05-06 03:54 53.53130 -5.25426 37040 ft 502 kts 92°
2026-05-06 03:55 53.52848 -5.13704 37039 ft 502 kts 93°
2026-05-06 03:55 53.52466 -5.02010 37035 ft 501 kts 94°
2026-05-06 03:56 53.52075 -4.90535 37035 ft 501 kts 93°
2026-05-06 03:56 53.51685 -4.78946 37035 ft 500 kts 93°
2026-05-06 03:57 53.51284 -4.67280 37038 ft 500 kts 94°
2026-05-06 03:57 53.50874 -4.55616 37032 ft 500 kts 94°
2026-05-06 03:58 53.50453 -4.43984 37038 ft 499 kts 94°
2026-05-06 03:58 53.50022 -4.32411 37043 ft 499 kts 94°
2026-05-06 03:59 53.49579 -4.20781 37040 ft 500 kts 94°
2026-05-06 03:59 53.49124 -4.09130 37046 ft 500 kts 94°
2026-05-06 04:00 53.48513 -3.97781 37043 ft 499 kts 100°
2026-05-06 04:00 53.46750 -3.86619 37048 ft 498 kts 111°
2026-05-06 04:01 53.44393 -3.75703 37048 ft 499 kts 110°
2026-05-06 04:01 53.42110 -3.64713 37054 ft 499 kts 110°
2026-05-06 04:02 53.39468 -3.53979 37044 ft 497 kts 118°
2026-05-06 04:02 53.36393 -3.43683 37052 ft 498 kts 117°
2026-05-06 04:03 53.33387 -3.33262 37051 ft 498 kts 117°
2026-05-06 04:03 53.30370 -3.22836 37052 ft 497 kts 117°
2026-05-06 04:04 53.27342 -3.12439 37052 ft 497 kts 117°
2026-05-06 04:04 53.24328 -3.02134 37055 ft 497 kts 117°
2026-05-06 04:05 53.21340 -2.91956 37041 ft 497 kts 117°
2026-05-06 04:05 53.18289 -2.81606 37047 ft 497 kts 117°
2026-05-06 04:06 53.15234 -2.71288 37049 ft 496 kts 117°
2026-05-06 04:06 53.12190 -2.61051 37046 ft 496 kts 117°
2026-05-06 04:07 53.09117 -2.50760 37045 ft 496 kts 118°
2026-05-06 04:07 53.06043 -2.40503 37049 ft 496 kts 118°
2026-05-06 04:08 53.02735 -2.30726 37037 ft 488 kts 133°
2026-05-06 04:08 53.00212 -2.27035 37036 ft 481 kts 151°
2026-05-06 04:08 52.97366 -2.24399 37062 ft 479 kts 153°
2026-05-06 04:09 52.91753 -2.18789 36867 ft 494 kts 149°
2026-05-06 04:09 52.88806 -2.15682 36117 ft 506 kts 149°
2026-05-06 04:09 52.85858 -2.12546 35542 ft 501 kts 149°
2026-05-06 04:10 52.83286 -2.09818 35109 ft 494 kts 149°
2026-05-06 04:10 52.80463 -2.06844 34575 ft 488 kts 149°
2026-05-06 04:10 52.77604 -2.03854 33938 ft 485 kts 150°
2026-05-06 04:10 52.74758 -2.00896 33028 ft 484 kts 150°
2026-05-06 04:11 52.72023 -1.98064 32134 ft 485 kts 149°
2026-05-06 04:11 52.69160 -1.95107 31278 ft 485 kts 149°
2026-05-06 04:11 52.66319 -1.92175 30658 ft 480 kts 149°
2026-05-06 04:11 52.63554 -1.89324 30140 ft 473 kts 149°
2026-05-06 04:12 52.60793 -1.86480 29497 ft 468 kts 150°
2026-05-06 04:12 52.58075 -1.83686 28815 ft 464 kts 150°
2026-05-06 04:12 52.55351 -1.80888 28146 ft 460 kts 150°
2026-05-06 04:12 52.52652 -1.78122 27479 ft 456 kts 150°
2026-05-06 04:13 52.49974 -1.75380 26851 ft 452 kts 150°
2026-05-06 04:13 52.47314 -1.72662 26248 ft 448 kts 150°
2026-05-06 04:13 52.44695 -1.69988 25666 ft 444 kts 150°
2026-05-06 04:13 52.42119 -1.67363 25087 ft 441 kts 150°
2026-05-06 04:14 52.39527 -1.64724 24502 ft 438 kts 150°
2026-05-06 04:14 52.36945 -1.62100 23929 ft 435 kts 150°
2026-05-06 04:14 52.34383 -1.59499 23367 ft 432 kts 150°
2026-05-06 04:14 52.31838 -1.56919 22708 ft 428 kts 150°
2026-05-06 04:15 52.29321 -1.54370 22138 ft 424 kts 150°
2026-05-06 04:15 52.26822 -1.51842 21559 ft 421 kts 149°
2026-05-06 04:15 52.24344 -1.49339 21020 ft 417 kts 149°
2026-05-06 04:15 52.21931 -1.46860 20482 ft 414 kts 147°
2026-05-06 04:16 52.19661 -1.44014 19947 ft 412 kts 140°
2026-05-06 04:16 52.17531 -1.40933 19419 ft 409 kts 140°
2026-05-06 04:16 52.15392 -1.37891 18887 ft 406 kts 140°
2026-05-06 04:16 52.13262 -1.34903 18395 ft 403 kts 141°
2026-05-06 04:17 52.11142 -1.31948 17937 ft 399 kts 141°
2026-05-06 04:17 52.09046 -1.29034 17494 ft 394 kts 141°
2026-05-06 04:17 52.06967 -1.26149 17084 ft 392 kts 140°
2026-05-06 04:17 52.04897 -1.23277 16692 ft 392 kts 140°
2026-05-06 04:18 52.02821 -1.20401 16295 ft 393 kts 140°
2026-05-06 04:18 52.00765 -1.17555 15914 ft 393 kts 140°
2026-05-06 04:18 51.98700 -1.14699 15503 ft 391 kts 140°
2026-05-06 04:18 51.96635 -1.11849 15124 ft 389 kts 140°
2026-05-06 04:19 51.94572 -1.09004 14602 ft 390 kts 140°
2026-05-06 04:19 51.92504 -1.06155 14020 ft 390 kts 139°